TimeHST,TemperatureF,Dew PointF,Humidity,Sea Level PressureIn,VisibilityMPH,Wind Direction,Wind SpeedMPH,Gust SpeedMPH,PrecipitationIn,Events,Conditions,WindDirDegrees,DateUTC
12:56 AM,73.9,62.1,66,29.98,10.0,ENE,5.8,-,N/A,,Clear,60,2012-10-03 10:56:00
1:56 AM,72.0,62.1,71,29.97,10.0,NNE,3.5,-,N/A,,Clear,30,2012-10-03 11:56:00
2:56 AM,72.0,62.1,71,29.96,10.0,East,4.6,-,N/A,,Clear,80,2012-10-03 12:56:00
3:56 AM,72.0,61.0,68,29.96,10.0,East,5.8,-,N/A,,Clear,100,2012-10-03 13:56:00
4:56 AM,72.0,60.1,66,29.96,10.0,East,4.6,-,N/A,,Clear,90,2012-10-03 14:56:00
5:56 AM,72.0,61.0,68,29.97,10.0,ESE,4.6,-,N/A,,Clear,110,2012-10-03 15:56:00
6:56 AM,71.1,60.1,68,29.99,10.0,SE,3.5,-,N/A,,Clear,140,2012-10-03 16:56:00
7:56 AM,75.9,64.0,67,30.00,10.0,Calm,Calm,-,N/A,,Clear,0,2012-10-03 17:56:00
8:56 AM,81.0,64.9,58,30.02,10.0,NNW,5.8,-,N/A,,Clear,340,2012-10-03 18:56:00
9:56 AM,81.0,64.9,58,30.03,10.0,NW,9.2,-,N/A,,Partly Cloudy,310,2012-10-03 19:56:00
10:56 AM,82.9,64.9,54,30.02,10.0,NNW,10.4,-,N/A,,Clear,340,2012-10-03 20:56:00
11:56 AM,82.9,68.0,60,30.01,10.0,NNW,9.2,-,N/A,,Clear,330,2012-10-03 21:56:00
12:56 PM,82.9,66.9,58,29.99,10.0,West,6.9,-,N/A,,Clear,270,2012-10-03 22:56:00
1:56 PM,82.9,68.0,60,29.97,10.0,West,5.8,-,N/A,,Clear,260,2012-10-03 23:56:00
2:56 PM,82.9,66.9,58,29.96,10.0,WNW,5.8,-,N/A,,Partly Cloudy,290,2012-10-04 00:56:00
3:56 PM,82.9,68.0,60,29.96,10.0,West,4.6,-,N/A,,Mostly Cloudy,260,2012-10-04 01:56:00
4:56 PM,82.9,66.9,58,29.97,10.0,NW,5.8,-,N/A,,Partly Cloudy,310,2012-10-04 02:56:00
5:56 PM,80.1,66.9,64,29.99,10.0,SSW,4.6,-,N/A,,Scattered Clouds,200,2012-10-04 03:56:00
6:56 PM,80.1,66.9,64,30.00,10.0,South,5.8,-,N/A,,Overcast,190,2012-10-04 04:56:00
7:56 PM,79.0,66.9,66,30.02,10.0,SSW,4.6,-,N/A,,Clear,200,2012-10-04 05:56:00
8:56 PM,78.1,64.9,64,30.04,10.0,Calm,Calm,-,N/A,,Clear,0,2012-10-04 06:56:00
9:56 PM,75.9,64.9,69,30.03,10.0,Calm,Calm,-,N/A,,Clear,0,2012-10-04 07:56:00
10:56 PM,75.0,64.0,69,30.03,10.0,SSE,3.5,-,N/A,,Clear,160,2012-10-04 08:56:00
11:56 PM,73.9,63.0,68,30.02,10.0,ENE,3.5,-,N/A,,Clear,70,2012-10-04 09:56:00